Olivia, MN

7:43 AM CDT on May 24, 2017 (GMT -0500)
Olivia Regional

Weather History for KOVL - May, 2014

Change the Weather History Date:

Sunday, May 25, 2014

  Actual Average (KRWF) Record (KRWF)
Temperature  
Mean Temperature 66 °F -  
Max Temperature 78 °F 72 °F 95 °F (1967)
Min Temperature 53 °F 50 °F 38 °F (1954)
Growing Degree Days 16 (Base 50)    
Moisture  
Dew Point 53 °F    
Average Humidity 56    
Maximum Humidity 69    
Minimum Humidity 39    
Precipitation  
Precipitation 0.01 in - - ()
Sea Level Pressure  
Sea Level Pressure 29.95 in    
Wind  
Wind Speed 8 mph (SSE)    
Max Wind Speed 15 mph    
Max Gust Speed 21 mph    
Visibility 10 miles    
Events Rain    
Averages and records for this station are not official NWS values.
T = Trace of Precipitation, MM = Missing Value Source: NWS Daily Summary

Daily Weather History Graph

Daily Weather History Graph

Search for Another Location

Airport or City:

Trip Planner

Search our weather history database for the weather conditions in past years. The results will help you decide how hot, cold, wet, or windy it might be!

Date:

Astronomy

May. 25, 2014 Rise Set
Actual Time 5:42 AM CDT 8:52 PM CDT
Civil Twilight 5:06 AM CDT 9:28 PM CDT
Nautical Twilight 4:21 AM CDT 10:13 PM CDT
Astronomical Twilight 3:25 AM CDT 11:09 PM CDT
Moon 3:56 AM CDT (5/25) 5:46 PM CDT (5/25)
Length of Visible Light 16h 21m
Length of Day
15h 10m
Waning Crescent, 10% of the Moon is Illuminated
May 25
Waning Crescent
May 28
New
Jun 5
First Quarter
Jun 12
Full
Jun 19
Last Quarter

Hourly Weather History & Observations

Time (CDT) Temp. Dew Point Humidity Pressure Visibility Wind Dir Wind Speed Gust Speed Precip Events Conditions
12:13 AM 62.6 °F 37.4 °F 39% 30.02 in 10.0 mi SSE 8.1 mph - N/A   Clear
12:33 AM 62.6 °F 37.4 °F 39% 30.03 in 10.0 mi SE 9.2 mph - N/A   Clear
1:13 AM 60.8 °F 39.2 °F 45% 30.02 in 10.0 mi SE 8.1 mph - N/A   Clear
1:33 AM 60.8 °F 39.2 °F 45% 30.02 in 10.0 mi SE 8.1 mph - N/A   Clear
1:53 AM 59.0 °F 41.0 °F 51% 30.02 in 10.0 mi SE 8.1 mph - N/A   Clear
2:13 AM 59.0 °F 39.2 °F 48% 30.02 in 10.0 mi SSE 8.1 mph - N/A   Clear
2:33 AM 59.0 °F 41.0 °F 51% 30.02 in 10.0 mi SSE 8.1 mph - N/A   Clear
2:53 AM 59.0 °F 41.0 °F 51% 30.02 in 10.0 mi SE 6.9 mph - N/A   Clear
3:13 AM 59.0 °F 41.0 °F 51% 30.02 in 10.0 mi SSE 5.8 mph - N/A   Clear
3:33 AM 57.2 °F 41.0 °F 55% 30.02 in 10.0 mi SSE 5.8 mph - N/A   Clear
3:53 AM 57.2 °F 41.0 °F 55% 30.02 in 10.0 mi SE 5.8 mph - N/A   Clear
4:13 AM 55.4 °F 41.0 °F 58% 30.02 in 10.0 mi SE 5.8 mph - N/A   Clear
4:33 AM 55.4 °F 41.0 °F 58% 30.01 in 10.0 mi SE 4.6 mph - N/A   Clear
4:54 AM 53.6 °F 41.0 °F 62% 30.01 in 10.0 mi SE 5.8 mph - N/A   Clear
5:13 AM 53.6 °F 41.0 °F 62% 30.01 in 10.0 mi SE 4.6 mph - N/A   Clear
5:33 AM 53.6 °F 41.0 °F 62% 30.00 in 10.0 mi SE 5.8 mph - N/A   Clear
5:53 AM 55.4 °F 42.8 °F 63% 30.01 in 10.0 mi SE 4.6 mph - N/A   Clear
6:13 AM 55.4 °F 42.8 °F 63% 30.01 in 10.0 mi SE 4.6 mph - N/A   Clear
6:33 AM 55.4 °F 42.8 °F 63% 30.01 in 10.0 mi SE 4.6 mph - N/A   Clear
6:53 AM 57.2 °F 44.6 °F 63% 30.01 in 10.0 mi SE 5.8 mph - N/A   Clear
7:13 AM 59.0 °F 46.4 °F 63% 30.00 in 10.0 mi SE 6.9 mph - N/A   Clear
7:33 AM 60.8 °F 46.4 °F 59% 30.00 in 10.0 mi SE 6.9 mph - N/A   Clear
7:53 AM 62.6 °F 48.2 °F 59% 30.01 in 10.0 mi SSE 10.4 mph - N/A   Clear
8:13 AM 64.4 °F 50.0 °F 59% 30.01 in 10.0 mi South 10.4 mph - N/A   Clear
8:33 AM 68.0 °F 51.8 °F 56% 30.01 in 10.0 mi SSE 10.4 mph - N/A   Clear
8:53 AM 69.8 °F 53.6 °F 56% 30.00 in 10.0 mi SSE 9.2 mph - N/A   Clear
9:13 AM 69.8 °F 53.6 °F 56% 30.00 in 10.0 mi South 10.4 mph - N/A   Clear
10:13 AM 73.4 °F 57.2 °F 57% 29.99 in 10.0 mi SSE 12.7 mph 18.4 mph N/A   Clear
10:33 AM 73.4 °F 57.2 °F 57% 29.99 in 10.0 mi South 13.8 mph 18.4 mph N/A   Scattered Clouds
10:53 AM 73.4 °F 57.2 °F 57% 29.98 in 10.0 mi South 12.7 mph 16.1 mph N/A   Scattered Clouds
11:13 AM 73.4 °F 55.4 °F 53% 29.97 in 10.0 mi South 12.7 mph 18.4 mph N/A   Scattered Clouds
11:33 AM 73.4 °F 57.2 °F 57% 29.97 in 10.0 mi South 13.8 mph - N/A   Mostly Cloudy
11:53 AM 73.4 °F 57.2 °F 57% 29.98 in 10.0 mi South 15.0 mph 20.7 mph N/A   Overcast
12:13 PM 73.4 °F 57.2 °F 57% 29.97 in 10.0 mi South 13.8 mph 17.3 mph N/A   Overcast
12:33 PM 75.2 °F 59.0 °F 57% 29.97 in 10.0 mi South 13.8 mph 20.7 mph N/A   Overcast
12:53 PM 77.0 °F 57.2 °F 50% 29.96 in 10.0 mi South 11.5 mph 18.4 mph N/A   Overcast
1:13 PM 77.0 °F 57.2 °F 50% 29.96 in 10.0 mi South 13.8 mph - N/A   Mostly Cloudy
1:33 PM 77.0 °F 57.2 °F 50% 29.95 in 10.0 mi South 11.5 mph 18.4 mph N/A   Mostly Cloudy
1:53 PM 77.0 °F 57.2 °F 50% 29.95 in 10.0 mi SSW 13.8 mph 19.6 mph N/A   Overcast
2:13 PM 77.0 °F 57.2 °F 50% 29.94 in 10.0 mi South 10.4 mph 16.1 mph N/A   Overcast
2:33 PM 77.0 °F 57.2 °F 50% 29.94 in 10.0 mi South 11.5 mph 17.3 mph N/A   Overcast
2:53 PM 77.0 °F 57.2 °F 50% 29.93 in 10.0 mi South 10.4 mph 17.3 mph N/A   Overcast
3:13 PM 77.0 °F 57.2 °F 50% 29.93 in 10.0 mi South 12.7 mph 17.3 mph N/A   Overcast
3:33 PM 75.2 °F 59.0 °F 57% 29.93 in 10.0 mi South 10.4 mph 19.6 mph N/A   Overcast
3:53 PM 73.4 °F 59.0 °F 61% 29.92 in 10.0 mi South 9.2 mph - N/A   Overcast
4:33 PM 73.4 °F 59.0 °F 61% 29.90 in 10.0 mi SSW 10.4 mph - N/A Rain Light Rain
4:53 PM 73.4 °F 60.8 °F 65% 29.89 in 10.0 mi South 6.9 mph - 0.01 in   Mostly Cloudy
5:13 PM 77.0 °F 60.8 °F 57% 29.88 in 10.0 mi South 9.2 mph - N/A   Scattered Clouds
5:33 PM 77.0 °F 60.8 °F 57% 29.88 in 10.0 mi South 8.1 mph - N/A   Mostly Cloudy
5:53 PM 77.0 °F 59.0 °F 54% 29.87 in 10.0 mi SSW 6.9 mph - N/A   Mostly Cloudy
6:13 PM 77.0 °F 59.0 °F 54% 29.87 in 10.0 mi South 5.8 mph - N/A   Scattered Clouds
6:33 PM 78.8 °F 60.8 °F 54% 29.86 in 10.0 mi South 5.8 mph - N/A   Mostly Cloudy
6:53 PM 78.8 °F 59.0 °F 51% 29.86 in 10.0 mi South 8.1 mph - N/A   Mostly Cloudy
7:13 PM 78.8 °F 59.0 °F 51% 29.87 in 10.0 mi South 4.6 mph - N/A   Scattered Clouds
7:33 PM 78.8 °F 60.8 °F 54% 29.87 in 10.0 mi SSE 5.8 mph - N/A   Clear
7:53 PM 77.0 °F 59.0 °F 54% 29.87 in 10.0 mi Calm Calm - N/A   Clear
8:13 PM 77.0 °F 59.0 °F 54% 29.88 in 10.0 mi Calm Calm - N/A   Scattered Clouds
8:33 PM 77.0 °F 60.8 °F 57% 29.88 in 10.0 mi SE 5.8 mph - N/A   Overcast
8:53 PM 77.0 °F 60.8 °F 57% 29.89 in 10.0 mi SE 6.9 mph - N/A   Mostly Cloudy
9:13 PM 75.2 °F 59.0 °F 57% 29.89 in 10.0 mi SE 8.1 mph - N/A   Scattered Clouds
9:33 PM 73.4 °F 60.8 °F 65% 29.89 in 10.0 mi SE 4.6 mph - N/A   Mostly Cloudy
9:53 PM 73.4 °F 60.8 °F 65% 29.89 in 10.0 mi SE 4.6 mph - N/A   Scattered Clouds
10:13 PM 73.4 °F 60.8 °F 65% 29.90 in 10.0 mi SE 4.6 mph - N/A   Clear
10:33 PM 71.6 °F 59.0 °F 64% 29.89 in 10.0 mi SE 6.9 mph - N/A   Clear
10:53 PM 71.6 °F 60.8 °F 69% 29.89 in 10.0 mi South 8.1 mph - N/A   Clear
11:13 PM 71.6 °F 60.8 °F 69% 29.89 in 10.0 mi South 9.2 mph - N/A   Clear
11:33 PM 71.6 °F 59.0 °F 64% 29.89 in 10.0 mi South 6.9 mph - N/A   Clear
11:53 PM 69.8 °F 59.0 °F 68% 29.89 in 10.0 mi South 8.1 mph - N/A   Clear